Hourly Data Report for May 06, 2021

OTTAWA INTL A
ONTARIO
Current Station Operator: NAVCAN

45°19'00.000" N
75°40'00.000" W
114.90 m
6106001
71628
YOW

Download Data

Hourly Data (May 2021)
Hourly Data Report for May 6, 2021
TIME
LST
Temp Definition
°C
Dew Point Definition
°C
Rel Hum Definition
%
Precip. Amount Definition
mm

Wind Dir Definition
10's deg

Wind Spd Definition
km/h
Visibility Definition
km
Stn Press Definition
kPa
Hmdx Definition


Wind Chill Definition


Weather Definition


00:00 7.5 2.7 71   30 24 24.1 99.87     LegendNANA
01:00 7.0 2.4 72   30 24 24.1 99.89     Mostly Cloudy
02:00 6.6 1.6 70   29 26 24.1 99.92     LegendNANA
03:00 5.4 0.9 73   30 25 24.1 99.98     LegendNANA
04:00 4.1 0.5 77   30 22 24.1 100.03     Clear
05:00 3.4 0.3 80   30 17 24.1 100.10     LegendNANA
06:00 4.3 1.1 80   29 21 24.1 100.17     LegendNANA
07:00 5.5 1.2 74   29 20 24.1 100.20     Clear
08:00 7.4 1.0 64   28 19 24.1 100.22     LegendNANA
09:00 8.9 -0.8 50   30 24 24.1 100.23     LegendNANA
10:00 10.0 -0.9 47   29 17 24.1 100.21     Mainly Clear
11:00 11.5 -2.3 38   26 27 24.1 100.20     LegendNANA
12:00 13.0 -1.6 36   27 30 24.1 100.16     LegendNANA
13:00 12.2 -4.0 32   28 25 24.1 100.13     Mostly Cloudy
14:00 12.0 -1.9 38   26 28 24.1 100.12     LegendNANA
15:00 13.3 -4.1 29   29 26 24.1 100.10     LegendNANA
16:00 13.2 -2.9 33   29 22 24.1 100.07     Mostly Cloudy
17:00 12.5 -3.0 34   29 22 24.1 100.06     LegendNANA
18:00 11.5 -4.1 33   29 21 24.1 100.07     LegendNANA
19:00 9.6 -2.5 42   30 14 24.1 100.10     Mostly Cloudy
20:00 9.5 -0.9 48   31 13 24.1 100.15     LegendNANA
21:00 9.0 -1.0 49   32 9 24.1 100.18     LegendNANA
22:00 8.7 -1.2 50   0 1 24.1 100.17     Mostly Cloudy
23:00 7.9 0.6 60   17 4 24.1 100.14     LegendNANA

Notes on Data Quality.

Legend

  • E = Estimated
  • M = Missing
  • NA = Not Available*
  • [empty] = Indicates an unobserved value
Date modified: